TimeCST,TemperatureF,Dew PointF,Humidity,Sea Level PressureIn,VisibilityMPH,Wind Direction,Wind SpeedMPH,Gust SpeedMPH,PrecipitationIn,Events,Conditions,WindDirDegrees,DateUTC
12:56 AM,32.9,26.1,76,30.36,10.0,WSW,3.5,-,N/A,,Clear,250,2013-03-09 06:56:00
1:56 AM,32.0,26.1,79,30.33,10.0,Calm,Calm,-,N/A,,Clear,0,2013-03-09 07:56:00
2:56 AM,32.0,26.1,79,30.30,10.0,Calm,Calm,-,N/A,,Clear,0,2013-03-09 08:56:00
3:56 AM,28.0,26.1,92,30.30,10.0,Calm,Calm,-,N/A,,Clear,0,2013-03-09 09:56:00
4:56 AM,34.0,28.0,79,30.30,10.0,Calm,Calm,-,N/A,,Clear,0,2013-03-09 10:56:00
5:56 AM,32.9,28.0,82,30.32,10.0,Calm,Calm,-,N/A,,Clear,0,2013-03-09 11:56:00
6:56 AM,34.9,30.0,82,30.32,10.0,Calm,Calm,-,N/A,,Clear,0,2013-03-09 12:56:00
7:56 AM,41.9,28.0,58,30.31,10.0,WNW,6.9,-,N/A,,Clear,300,2013-03-09 13:56:00
8:56 AM,45.0,28.0,52,30.31,10.0,WNW,4.6,-,N/A,,Clear,300,2013-03-09 14:56:00
9:56 AM,52.0,30.0,43,30.29,10.0,Calm,Calm,-,N/A,,Clear,0,2013-03-09 15:56:00
10:56 AM,57.9,31.1,36,30.28,10.0,Calm,Calm,-,N/A,,Clear,0,2013-03-09 16:56:00
11:56 AM,63.0,26.1,25,30.24,10.0,Variable,4.6,-,N/A,,Clear,0,2013-03-09 17:56:00
12:56 PM,65.8,28.0,24,30.20,10.0,Variable,4.6,-,N/A,,Clear,0,2013-03-09 18:56:00
1:56 PM,66.9,28.0,23,30.17,10.0,Calm,Calm,-,N/A,,Clear,0,2013-03-09 19:56:00
3:56 PM,63.9,32.0,30,30.17,10.0,ENE,6.9,-,N/A,,Partly Cloudy,60,2013-03-09 21:56:00
4:56 PM,59.9,38.8,46,30.17,10.0,Calm,Calm,-,N/A,,Clear,0,2013-03-09 22:56:00
5:56 PM,59.0,32.0,36,30.17,10.0,NNW,5.8,-,N/A,,Clear,330,2013-03-09 23:56:00
6:56 PM,56.8,32.0,39,30.18,10.0,NNW,10.4,-,N/A,,Clear,340,2013-03-10 00:56:00
7:56 PM,55.9,31.1,39,30.17,10.0,NNW,5.8,-,N/A,,Partly Cloudy,330,2013-03-10 01:56:00
8:56 PM,55.9,31.1,39,30.17,10.0,NNW,10.4,-,N/A,,Mostly Cloudy,340,2013-03-10 02:56:00
9:56 PM,54.9,30.0,39,30.15,10.0,North,9.2,-,N/A,,Clear,350,2013-03-10 03:56:00
10:56 PM,54.9,30.0,39,30.13,10.0,North,11.5,-,N/A,,Clear,360,2013-03-10 04:56:00
11:56 PM,55.9,30.0,37,30.12,10.0,North,11.5,20.7,N/A,,Clear,350,2013-03-10 05:56:00